Hourly Data Report for September 08, 2017

All times are specified in Local Standard Time (LST). Add 1 hour to adjust for Daylight Saving Time where and when it is observed.

KUGAARUK CLIMATE
NUNAVUT

68°32'15.060" N
89°47'47.020" W
15.80 m
2303094
71407
NBB

Download Data

Hourly Data (September 2017)
Hourly Data Report for September 8, 2017
Temp Definition
°C
Dew Point Temp Definition
°C
Rel Hum Definition
%
Wind Dir Definition
10's deg

Wind Spd Definition
km/h
Visibility Definition
km
Stn Press Definition
kPa
Hmdx Definition


Wind Chill Definition


Weather Definition


TIME
00:00 3.8 0.8 81 1 4   100.12     LegendNANA
01:00 3.5 0.6 81 8 9   100.09     LegendNANA
02:00 1.8 0.5 91 1 15   100.02     LegendNANA
03:00 1.1 0.2 94 7 20   99.95     LegendNANA
04:00 1.0 -0.4 90 8 21   99.88     LegendNANA
05:00 0.2 -0.7 93 6 23   99.79     LegendNANA
06:00 -0.1 -1.3 92 7 24   99.69   -6 LegendNANA
07:00 -0.5 -1.7 92 7 27   99.56   -7 LegendNANA
08:00 -0.5 -1.6 92 8 31   99.39   -7 LegendNANA
09:00 -0.7 -1.7 93 7 32   99.30   -8 LegendNANA
10:00 -1.0 -2.0 93 7 31   99.16   -8 LegendNANA
11:00 -1.1 -2.5 90 7 35   99.03   -8 LegendNANA
12:00 -1.4 -3.3 86 7 38   98.96   -9 LegendNANA
13:00 -1.4 -3.8 84 6 37   98.86   -9 LegendNANA
14:00 -2.3 -4.1 88 6 38   98.79   -10 LegendNANA
15:00 -3.4 -4.4 93 6 37   98.70   -12 LegendNANA
16:00 -3.4 -4.1 95 6 38   98.57   -12 LegendNANA
17:00 -2.6 -3.4 94 5 37   98.52   -11 LegendNANA
18:00 -2.3 -3.2 94 3 37   98.56   -10 LegendNANA
19:00 -2.2 -3.2 93 5 41   98.44   -10 LegendNANA
20:00 -1.8 -2.9 92 5 43   98.46   -10 LegendNANA
21:00 -1.2 -3.1 87 5 32   98.57   -8 LegendNANA
22:00 -1.0 -3.1 86 4 29   98.61   -8 LegendNANA
23:00 -1.0 -3.1 86 4 21   98.76   -7 LegendNANA

Notes on Data Quality.

Legend

  • E = Estimated
  • M = Missing
  • NA = Not Available
  • ‡ = Partner data that is not subject to review by the National Climate Archives
Date modified: